Powrót do katalogu

STARLINK-31047

AktywnyŁącznośćVLEO
NORAD 58783·PAYLOAD·🇺🇸 United States

Wystrzelony Jan 14, 2024 z Vandenberg Space Force Base

Loading…

Następne Przeloty (najbliższe 24 godziny)

TLE

ŚwieżeSource: CelesTrak SupGP

Epoka: Sep 14, 2026, 20:51 UTC

1 58783C 24011U   26257.86923611  .00023043  00000+0  68066-3 0  2574
2 58783  53.1590 195.6881 0001313 115.8608  92.4117 15.34385548    12

Śledź STARLINK-31047 w czasie rzeczywistym z AllMySat

Download on the App Store